Location: Bermeries
(50.2863°N, 3.7551°E)
Time: 21:27:48
(UTC+00:00)

Cosmos 1703 - Pass Details

Date: 23 May 2024
Orbit: 486 x 499 km, 82.5° (Epoch: 14 June)

Event Time Altitude Azimuth Distance (km) Brightness Sun altitude
Exits shadow 02:01:14 12° 169° (SSE) 1,595 5.3 -12.7°
Maximum altitude 02:04:34 49° 95° (E) 658 3.9 -12.4°
Drops below altitude 10° 02:08:11 10° 20° (NNE) 1,713 7.2 -12.0°
Sets 02:10:21 0° 15° (NNE) 2,599 8.2 -11.8°
